Tracking 19489 objects as of 22-Jan-2019
HD Live streaming from Space Station
objects crossing your sky now

COSMOS 1884 (GLONASS)

Track COSMOS 1884 (GLONASS) now!
COSMOS 1884 (GLONASS) is classified as:


NORAD ID: 18356
Int'l Code: 1987-079B
Perigee: 19,090.4 km
Apogee: 19,183.5 km
Inclination: 65.7 °
Period: 675.7 minutes
Semi major axis: 25507 km
RCS: 0.8552 m2 (medium)
Launch date: September 16, 1987
Source: Commonwealth of Independent States (former USSR) (CIS)
Launch site: TYURATAM MISSILE AND SPACE COMPLEX (TTMTR)
SV:
aabbcc
Your satellite tracking list
Your tracking list is empty




NASA's NSSDC Master Catalog

Two Line Element Set (TLE):
1 18356U 87079B   19018.21415615  .00000000  00000-0  00000+0 0  9997
2 18356  65.7123  49.3623 0018247 220.0840 199.1441  2.13102809244043
Source of the keplerian elements: AFSPC